When you browse on this site, cookies collect data to enhance your experience and personalize the content and advertising you see.
Visit our Privacy Policy to learn more. By continuing to use the site, you agree to this use of cookies and data.
  • In Netherlands
  • List of Countries
  • For 7 days
  • Water Temperature
  • Satellite Maps
  • Weather Map
  • Weather Widgets
  • user-avatar
    Login

    Hourly Weather Nowogard

    Today, 23 April, Tuesday

    Time Temperature Precipitation Wind Pressure Humidity
    00:00 +10°C° 0 mm 5 mps 759 mmHg 64%
    01:00 +9°C° 0 mm 5 mps 759 mmHg 65%
    02:00 +9°C° 0 mm 5 mps 759 mmHg 63%
    03:00 +8°C° 0 mm 5 mps 758 mmHg 62%
    04:00 +8°C° 0 mm 5 mps 758 mmHg 60%
    05:00 +9°C° 0 mm 6 mps 758 mmHg 57%
    06:00 +9°C° 0 mm 7 mps 758 mmHg 55%
    07:00 +10°C° 0 mm 7 mps 758 mmHg 52%
    08:00 +11°C° 0 mm 8 mps 757 mmHg 49%
    09:00 +12°C° 0 mm 9 mps 757 mmHg 46%
    10:00 +14°C° 0 mm 10 mps 757 mmHg 43%
    11:00 +16°C° 0 mm 10 mps 757 mmHg 42%
    12:00 +16°C° 0 mm 10 mps 756 mmHg 41%
    13:00 +17°C° 0 mm 10 mps 756 mmHg 41%
    14:00 +17°C° 0 mm 10 mps 755 mmHg 43%
    15:00 +17°C° 0 mm 9 mps 755 mmHg 44%
    16:00 +18°C° 0 mm 9 mps 754 mmHg 46%
    17:00 +16°C° 0.1 mm 8 mps 754 mmHg 51%
    18:00 +15°C° 0.1 mm 7 mps 754 mmHg 56%
    19:00 +14°C° 0.1 mm 6 mps 753 mmHg 61%
    20:00 +13°C° 0.4 mm 6 mps 753 mmHg 67%
    21:00 +13°C° 0.4 mm 6 mps 753 mmHg 73%
    22:00 +11°C° 0.4 mm 6 mps 753 mmHg 79%
    23:00 +11°C° 0 mm 6 mps 753 mmHg 76%

    Tomorrow, 24 April, Wednesday

    Time Temperature Precipitation Wind Pressure Humidity
    00:00 +11°C° 0 mm 6 mps 753 mmHg 74%
    01:00 +10°C° 0 mm 6 mps 753 mmHg 71%
    02:00 +10°C° 0 mm 6 mps 752 mmHg 70%
    03:00 +10°C° 0 mm 6 mps 752 mmHg 70%
    04:00 +10°C° 0 mm 6 mps 752 mmHg 69%
    05:00 +10°C° 0 mm 7 mps 752 mmHg 67%
    06:00 +11°C° 0 mm 7 mps 752 mmHg 66%
    07:00 +11°C° 0 mm 8 mps 752 mmHg 65%
    08:00 +13°C° 0 mm 8 mps 752 mmHg 62%
    09:00 +16°C° 0 mm 8 mps 752 mmHg 60%
    10:00 +17°C° 0 mm 8 mps 752 mmHg 58%
    11:00 +17°C° 0 mm 8 mps 752 mmHg 59%
    12:00 +17°C° 0 mm 8 mps 752 mmHg 60%
    13:00 +18°C° 0 mm 7 mps 752 mmHg 61%
    14:00 +18°C° 0 mm 7 mps 752 mmHg 61%
    15:00 +18°C° 0 mm 7 mps 752 mmHg 61%
    16:00 +20°C° 0 mm 7 mps 752 mmHg 60%
    17:00 +19°C° 0 mm 6 mps 752 mmHg 65%
    18:00 +16°C° 0 mm 5 mps 752 mmHg 69%
    19:00 +15°C° 0 mm 4 mps 752 mmHg 74%
    20:00 +15°C° 0 mm 4 mps 752 mmHg 75%
    21:00 +14°C° 0 mm 5 mps 752 mmHg 77%
    22:00 +14°C° 0 mm 5 mps 752 mmHg 78%
    23:00 +13°C° 0 mm 5 mps 752 mmHg 80%

    Day after tomorrow, 25 April, Thursday

    Time Temperature Precipitation Wind Pressure Humidity
    00:00 +13°C° 0 mm 5 mps 752 mmHg 82%
    01:00 +13°C° 0 mm 4 mps 752 mmHg 84%
    02:00 +12°C° 0 mm 4 mps 752 mmHg 86%
    03:00 +12°C° 0 mm 4 mps 752 mmHg 88%
    04:00 +11°C° 0 mm 3 mps 753 mmHg 90%
    05:00 +12°C° 0 mm 3 mps 753 mmHg 88%
    06:00 +13°C° 0 mm 3 mps 753 mmHg 85%
    07:00 +14°C° 0 mm 3 mps 753 mmHg 83%
    08:00 +17°C° 0 mm 3 mps 754 mmHg 78%
    09:00 +19°C° 0 mm 3 mps 754 mmHg 72%
    10:00 +20°C° 0 mm 2 mps 755 mmHg 67%
    11:00 +21°C° 0 mm 2 mps 755 mmHg 63%
    12:00 +23°C° 0 mm 2 mps 755 mmHg 60%
    13:00 +24°C° 0 mm 2 mps 755 mmHg 56%
    14:00 +24°C° 0 mm 3 mps 755 mmHg 58%
    15:00 +22°C° 0 mm 3 mps 755 mmHg 60%
    16:00 +22°C° 0 mm 3 mps 755 mmHg 62%
    17:00 +20°C° 0 mm 3 mps 755 mmHg 70%
    18:00 +18°C° 0 mm 3 mps 755 mmHg 78%
    19:00 +16°C° 0 mm 3 mps 755 mmHg 86%
    20:00 +14°C° 0 mm 3 mps 755 mmHg 88%
    21:00 +13°C° 0 mm 3 mps 755 mmHg 91%
    22:00 +12°C° 0 mm 3 mps 755 mmHg 94%
    23:00 +12°C° 0 mm 3 mps 755 mmHg 93%

    26 April, Friday

    Time Temperature Precipitation Wind Pressure Humidity
    00:00 +13°C° 0 mm 3 mps 755 mmHg 93%
    01:00 +13°C° 0 mm 3 mps 754 mmHg 92%
    02:00 +13°C° 0 mm 3 mps 754 mmHg 92%
    03:00 +13°C° 0 mm 3 mps 754 mmHg 92%
    04:00 +13°C° 0 mm 3 mps 753 mmHg 92%
    05:00 +14°C° 0 mm 3 mps 753 mmHg 87%
    06:00 +15°C° 0 mm 4 mps 753 mmHg 82%
    07:00 +17°C° 0 mm 4 mps 752 mmHg 77%
    08:00 +19°C° 0 mm 4 mps 752 mmHg 72%
    09:00 +21°C° 0 mm 4 mps 752 mmHg 67%
    10:00 +22°C° 0 mm 4 mps 752 mmHg 62%
    11:00 +25°C° 0 mm 4 mps 751 mmHg 57%
    12:00 +26°C° 0 mm 4 mps 751 mmHg 53%
    13:00 +27°C° 0 mm 3 mps 751 mmHg 49%
    14:00 +27°C° 0 mm 3 mps 751 mmHg 49%
    15:00 +27°C° 0 mm 3 mps 751 mmHg 49%
    16:00 +27°C° 0 mm 3 mps 751 mmHg 48%
    17:00 +24°C° 0.8 mm 3 mps 751 mmHg 60%
    18:00 +21°C° 0.8 mm 3 mps 751 mmHg 72%
    19:00 +18°C° 0.8 mm 4 mps 751 mmHg 84%
    20:00 +17°C° 1.7 mm 4 mps 751 mmHg 88%
    21:00 +14°C° 1.7 mm 5 mps 751 mmHg 91%
    22:00 +13°C° 1.7 mm 6 mps 751 mmHg 95%
    23:00 +12°C° 0.4 mm 5 mps 751 mmHg 94%

    27 April, Saturday

    Time Temperature Precipitation Wind Pressure Humidity
    00:00 +12°C° 0.4 mm 5 mps 751 mmHg 94%
    01:00 +12°C° 0.4 mm 4 mps 751 mmHg 94%
    02:00 +10°C° 0.3 mm 5 mps 751 mmHg 93%
    03:00 +10°C° 0.3 mm 5 mps 751 mmHg 92%
    04:00 +9°C° 0.3 mm 5 mps 751 mmHg 92%
    05:00 +9°C° 0 mm 5 mps 751 mmHg 89%
    06:00 +9°C° 0 mm 5 mps 751 mmHg 87%
    07:00 +9°C° 0 mm 5 mps 751 mmHg 85%
    08:00 +9°C° 0.3 mm 5 mps 751 mmHg 84%
    09:00 +9°C° 0.3 mm 6 mps 752 mmHg 84%
    10:00 +9°C° 0.3 mm 6 mps 752 mmHg 83%
    11:00 +9°C° 0.3 mm 6 mps 752 mmHg 83%
    12:00 +9°C° 0.3 mm 6 mps 752 mmHg 83%
    13:00 +9°C° 0.3 mm 6 mps 752 mmHg 83%
    14:00 +9°C° 0.6 mm 5 mps 752 mmHg 85%
    15:00 +10°C° 0.6 mm 4 mps 753 mmHg 87%
    16:00 +10°C° 0.6 mm 4 mps 753 mmHg 89%
    17:00 +10°C° 0.1 mm 3 mps 753 mmHg 90%
    18:00 +10°C° 0.1 mm 2 mps 753 mmHg 91%
    19:00 +9°C° 0.1 mm 2 mps 753 mmHg 92%
    20:00 +9°C° 0 mm 2 mps 753 mmHg 94%
    21:00 +8°C° 0 mm 2 mps 753 mmHg 95%
    22:00 +8°C° 0 mm 2 mps 754 mmHg 97%
    23:00 +8°C° 0 mm 3 mps 754 mmHg 96%

    28 April, Sunday

    Time Temperature Precipitation Wind Pressure Humidity
    00:00 +7°C° 0 mm 3 mps 754 mmHg 96%
    01:00 +7°C° 0 mm 3 mps 754 mmHg 95%
    02:00 +6°C° 0 mm 4 mps 754 mmHg 96%
    03:00 +6°C° 0 mm 4 mps 754 mmHg 96%
    04:00 +6°C° 0 mm 4 mps 754 mmHg 96%
    05:00 +6°C° 0 mm 4 mps 754 mmHg 95%
    06:00 +6°C° 0 mm 4 mps 755 mmHg 93%
    07:00 +7°C° 0 mm 4 mps 755 mmHg 92%
    08:00 +7°C° 0.1 mm 5 mps 755 mmHg 90%
    09:00 +7°C° 0.1 mm 5 mps 755 mmHg 89%
    10:00 +8°C° 0.1 mm 5 mps 755 mmHg 87%
    11:00 +8°C° 0.1 mm 5 mps 755 mmHg 85%
    12:00 +9°C° 0.1 mm 5 mps 756 mmHg 82%
    13:00 +10°C° 0.1 mm 6 mps 756 mmHg 80%
    14:00 +10°C° 0.1 mm 5 mps 756 mmHg 78%
    15:00 +10°C° 0.1 mm 5 mps 756 mmHg 77%
    16:00 +12°C° 0.1 mm 4 mps 756 mmHg 76%
    17:00 +11°C° 0.1 mm 3 mps 756 mmHg 79%
    18:00 +10°C° 0.1 mm 3 mps 756 mmHg 83%
    19:00 +10°C° 0.1 mm 2 mps 756 mmHg 87%
    20:00 +9°C° 0 mm 2 mps 757 mmHg 89%
    21:00 +8°C° 0 mm 2 mps 757 mmHg 92%
    22:00 +8°C° 0 mm 2 mps 757 mmHg 94%
    23:00 +7°C° 0 mm 2 mps 757 mmHg 95%
    Show more